�������l�o���
Date,Time,MP-1(��Sv/h),MP-2(��Sv/h),MP-3(��Sv/h),MP-4(��Sv/h),MP-5(��Sv/h),MP-6(��Sv/h),MP-7(��Sv/h),MP-8(��Sv/h),����,����(m/s),���J
2024/05/24,00:00,0.504,0.771,0.487,0.952,0.695,0.317,0.551,0.513,�쐼,1.7,��
2024/05/24,00:10,0.505,0.773,0.486,0.952,0.698,0.318,0.549,0.514,�쐼,1.2,��
2024/05/24,00:20,0.504,0.774,0.486,0.953,0.696,0.318,0.552,0.516,�쐼,1.7,��
2024/05/24,00:30,0.505,0.773,0.487,0.952,0.697,0.318,0.551,0.515,���쐼,2.3,��
2024/05/24,00:40,0.505,0.772,0.487,0.950,0.696,0.318,0.551,0.515,���쐼,1.4,��
2024/05/24,00:50,0.504,0.772,0.487,0.952,0.697,0.317,0.552,0.516,���쐼,0.8,��
2024/05/24,01:00,0.505,0.771,0.486,0.952,0.697,0.317,0.551,0.514,��쐼,0.6,��
2024/05/24,01:10,0.506,0.774,0.486,0.952,0.698,0.317,0.552,0.517,-,CALM,��
2024/05/24,01:20,0.504,0.772,0.487,0.953,0.698,0.317,0.550,0.514,-,CALM,��
2024/05/24,01:30,0.503,0.773,0.488,0.953,0.698,0.317,0.552,0.515,-,CALM,��
2024/05/24,01:40,0.505,0.771,0.488,0.953,0.696,0.317,0.553,0.514,��,0.6,��
2024/05/24,01:50,0.505,0.772,0.486,0.953,0.697,0.317,0.552,0.516,-,CALM,��
2024/05/24,02:00,0.504,0.772,0.485,0.952,0.699,0.317,0.553,0.517,�쓌,0.9,��
2024/05/24,02:10,0.504,0.773,0.486,0.951,0.696,0.316,0.553,0.514,��쐼,0.8,��
2024/05/24,02:20,0.505,0.770,0.487,0.952,0.695,0.317,0.552,0.514,��,0.6,��
2024/05/24,02:30,0.504,0.773,0.485,0.954,0.696,0.318,0.552,0.514,-,CALM,��
2024/05/24,02:40,0.503,0.772,0.488,0.951,0.696,0.317,0.552,0.513,-,CALM,��
2024/05/24,02:50,0.506,0.771,0.486,0.952,0.698,0.319,0.551,0.515,��쐼,0.6,��
2024/05/24,03:00,0.503,0.771,0.488,0.954,0.696,0.317,0.552,0.513,�쐼,0.6,��
2024/05/24,03:10,0.504,0.771,0.487,0.951,0.696,0.316,0.553,0.516,��,0.6,��
2024/05/24,03:20,0.504,0.772,0.485,0.950,0.695,0.317,0.552,0.514,�k��,1.1,��
2024/05/24,03:30,0.504,0.771,0.487,0.953,0.696,0.318,0.552,0.516,�k��,0.8,��
2024/05/24,03:40,0.504,0.772,0.487,0.951,0.698,0.317,0.554,0.515,�k,1.4,��
2024/05/24,03:50,0.504,0.773,0.486,0.953,0.696,0.318,0.552,0.515,�k,1.2,��
2024/05/24,04:00,0.504,0.771,0.488,0.952,0.698,0.319,0.552,0.514,���k��,3.1,��
2024/05/24,04:10,0.504,0.773,0.487,0.953,0.698,0.317,0.553,0.516,��,4.5,��
2024/05/24,04:20,0.505,0.773,0.487,0.950,0.695,0.316,0.554,0.514,���k��,4.2,��
2024/05/24,04:30,0.504,0.771,0.486,0.953,0.695,0.318,0.552,0.514,�k��,4.4,��
2024/05/24,04:40,0.505,0.773,0.487,0.952,0.696,0.317,0.553,0.514,���k��,4.3,��
2024/05/24,04:50,0.505,0.770,0.485,0.952,0.696,0.318,0.554,0.515,���k��,3.9,��
2024/05/24,05:00,0.503,0.773,0.487,0.952,0.695,0.317,0.554,0.515,�k��,2.6,��
2024/05/24,05:10,0.504,0.772,0.488,0.952,0.697,0.317,0.553,0.515,���k��,2.8,��
2024/05/24,05:20,0.505,0.772,0.486,0.952,0.697,0.317,0.553,0.515,��,2.6,��
2024/05/24,05:30,0.505,0.772,0.485,0.954,0.696,0.316,0.554,0.513,��,3.1,��
2024/05/24,05:40,0.504,0.772,0.486,0.952,0.695,0.318,0.553,0.515,���쐼,2.6,��
2024/05/24,05:50,0.505,0.772,0.487,0.951,0.694,0.317,0.554,0.515,���k��,2.6,��
2024/05/24,06:00,0.506,0.773,0.488,0.952,0.697,0.318,0.554,0.516,�k��,2.3,��
2024/05/24,06:10,0.505,0.773,0.487,0.952,0.694,0.318,0.553,0.513,�k��,1.9,��
2024/05/24,06:20,0.506,0.771,0.487,0.951,0.695,0.318,0.554,0.516,���k��,1.7,��
2024/05/24,06:30,0.504,0.769,0.485,0.952,0.697,0.318,0.554,0.514,���k��,2.0,��
2024/05/24,06:40,0.506,0.768,0.486,0.953,0.695,0.317,0.554,0.518,���k��,1.4,��
2024/05/24,06:50,0.503,0.770,0.488,0.954,0.694,0.317,0.554,0.517,��,0.9,��
2024/05/24,07:00,0.505,0.769,0.487,0.953,0.694,0.317,0.554,0.517,-,CALM,��
2024/05/24,07:10,0.504,0.772,0.487,0.955,0.697,0.316,0.553,0.516,���k��,0.9,��
2024/05/24,07:20,0.504,0.772,0.487,0.952,0.696,0.318,0.552,0.516,��,1.2,��
2024/05/24,07:30,0.504,0.773,0.487,0.954,0.696,0.316,0.553,0.516,�쓌,1.4,��
2024/05/24,07:40,0.504,0.773,0.488,0.955,0.696,0.318,0.553,0.515,�쓌,1.5,��
2024/05/24,07:50,0.505,0.771,0.488,0.954,0.695,0.316,0.551,0.514,���쓌,0.8,��
2024/05/24,08:00,0.505,0.773,0.489,0.955,0.697,0.316,0.552,0.514,�쓌,0.9,��
2024/05/24,08:10,0.503,0.772,0.486,0.956,0.696,0.316,0.551,0.513,���쓌,0.6,��
2024/05/24,08:20,0.504,0.771,0.487,0.953,0.697,0.316,0.553,0.515,�k��,1.2,��
2024/05/24,08:30,0.504,0.771,0.488,0.955,0.696,0.316,0.552,0.515,�k��,1.5,��
2024/05/24,08:40,0.504,0.773,0.489,0.954,0.697,0.316,0.551,0.514,���k��,1.5,��
2024/05/24,08:50,0.504,0.772,0.488,0.955,0.696,0.318,0.551,0.513,���k��,1.4,��
2024/05/24,09:00,0.505,0.773,0.486,0.954,0.696,0.315,0.552,0.513,��,2.0,��
2024/05/24,09:10,0.504,0.774,0.484,0.958,0.696,0.317,0.549,0.514,���쓌,2.6,��
2024/05/24,09:20,0.506,0.774,0.484,0.954,0.697,0.316,0.549,0.514,��,1.5,��
2024/05/24,09:30,0.505,0.774,0.484,0.954,0.693,0.316,0.551,0.513,���쓌,2.2,��
2024/05/24,09:40,0.505,0.773,0.484,0.955,0.697,0.317,-,0.514,���쓌,2.6,��
2024/05/24,09:50,0.507,0.774,0.487,0.956,0.695,0.318,-,0.513,���쓌,2.6,��
2024/05/24,10:00,0.507,0.774,0.487,0.957,0.697,0.317,-,0.513,���쓌,2.3,��
2024/05/24,10:10,0.505,0.774,0.487,0.955,0.697,0.317,-,0.516,�쓌,2.5,��
2024/05/24,10:20,0.507,0.775,0.488,0.956,0.698,0.316,-,0.513,���쓌,2.3,��
2024/05/24,10:30,0.506,0.775,0.486,0.957,0.697,0.317,-,0.516,�쓌,2.3,��
2024/05/24,10:40,0.505,0.774,0.488,0.955,0.698,0.317,-,0.515,�쓌,2.8,��
2024/05/24,10:50,0.506,0.778,0.487,0.957,0.699,0.317,-,0.512,�쓌,3.8,��
2024/05/24,11:00,0.507,0.775,0.488,0.956,0.698,0.316,-,0.514,��쓌,4.0,��
2024/05/24,11:10,0.506,0.775,0.489,0.952,0.696,0.317,-,0.515,�쓌,4.2,��
2024/05/24,11:20,0.507,0.774,0.489,0.954,0.699,0.317,-,0.515,��쓌,4.3,��
2024/05/24,11:30,0.506,0.774,0.489,0.953,0.698,0.318,-,0.517,�쓌,5.6,��
2024/05/24,11:40,0.506,0.776,0.490,0.954,0.698,0.318,-,0.514,�쓌,5.2,��
2024/05/24,11:50,0.506,0.776,0.488,0.954,0.702,0.317,-,0.514,�쓌,5.1,��
2024/05/24,12:00,0.508,0.777,0.489,0.956,0.699,0.319,-,0.514,��쓌,4.7,��
2024/05/24,12:10,0.506,0.777,0.487,0.955,0.697,0.317,-,0.515,��쓌,5.4,��
2024/05/24,12:20,0.507,0.776,0.488,0.956,0.699,0.317,-,0.515,��쓌,6.0,��
2024/05/24,12:30,0.506,0.777,0.489,0.954,0.702,0.316,-,0.516,�쓌,6.2,��
2024/05/24,12:40,0.506,0.775,0.489,0.955,0.700,0.318,-,0.516,��쓌,7.5,��
2024/05/24,12:50,0.508,0.778,0.489,0.953,0.699,0.318,-,0.515,��쓌,9.1,��
2024/05/24,13:00,0.507,0.776,0.490,0.956,0.701,0.317,-,0.515,��쓌,9.1,��
2024/05/24,13:10,0.507,0.775,0.487,0.954,0.700,0.318,-,0.515,��쓌,5.9,��
2024/05/24,13:20,0.505,0.774,0.489,0.954,0.699,0.317,-,0.515,��쓌,7.4,��
2024/05/24,13:30,0.506,0.774,0.490,0.954,0.700,0.318,0.551,0.516,��쓌,6.8,��
2024/05/24,13:40,0.506,0.777,0.489,0.955,0.702,0.317,0.551,0.516,��쓌,7.1,��
2024/05/24,13:50,0.507,0.775,0.489,0.956,0.699,0.318,0.551,0.516,��쓌,8.5,��
2024/05/24,14:00,0.508,0.777,0.490,0.955,0.703,0.319,0.553,0.513,��쓌,9.0,��
2024/05/24,14:10,0.506,0.777,0.489,0.954,0.701,0.318,0.553,0.515,��쓌,8.5,��
2024/05/24,14:20,0.509,0.774,0.490,0.956,0.700,0.318,0.554,0.516,��,3.9,��
2024/05/24,14:30,0.507,0.775,0.490,0.954,0.701,0.319,0.555,0.516,��,7.0,��
2024/05/24,14:40,0.507,0.776,0.489,0.956,0.701,0.318,0.554,0.516,��,6.3,��
2024/05/24,14:50,0.507,0.775,0.488,0.956,0.704,0.318,0.555,0.516,��,6.6,��
2024/05/24,15:00,0.508,0.778,0.490,0.954,0.703,0.318,0.554,0.517,���쐼,7.0,��
2024/05/24,15:10,0.508,0.777,0.490,0.957,0.706,0.318,0.554,0.516,��,6.7,��
2024/05/24,15:20,0.510,0.776,0.491,0.958,0.704,0.319,0.553,0.515,���k��,4.7,��
2024/05/24,15:30,0.508,0.777,0.492,0.956,0.705,0.318,0.554,0.515,��,4.3,��
2024/05/24,15:40,0.510,0.779,0.493,0.959,0.703,0.318,0.554,0.515,��,6.7,��
2024/05/24,15:50,0.509,0.778,0.492,0.959,0.701,0.318,0.552,0.515,��,7.8,��
2024/05/24,16:00,0.510,0.779,0.492,0.961,0.704,0.319,0.552,0.515,��,6.7,��
2024/05/24,16:10,0.508,0.777,0.493,0.958,0.706,0.321,0.553,0.515,��,9.0,��
2024/05/24,16:20,0.509,0.779,0.493,0.960,0.703,0.320,0.552,0.514,��,7.4,��
2024/05/24,16:30,0.509,0.774,0.493,0.960,0.705,0.320,0.552,0.517,���k��,6.6,��
2024/05/24,16:40,0.510,0.778,0.493,0.960,0.705,0.318,0.553,0.515,���k��,9.5,��
2024/05/24,16:50,0.509,0.781,0.490,0.961,0.704,0.319,0.553,0.519,��,8.0,��
2024/05/24,17:00,0.510,0.780,0.491,0.964,0.703,0.318,0.552,0.517,���k��,8.7,��
2024/05/24,17:10,0.510,0.780,0.492,0.962,0.702,0.319,0.552,0.519,���k��,6.6,��
2024/05/24,17:20,0.510,0.778,0.491,0.962,0.705,0.319,0.553,0.518,���k��,7.1,��
2024/05/24,17:30,0.508,0.779,0.492,0.959,0.705,0.319,0.554,0.517,��,4.4,��
2024/05/24,17:40,0.507,0.778,0.490,0.962,0.705,0.319,0.552,0.516,���k��,3.5,��
2024/05/24,17:50,0.508,0.778,0.491,0.960,0.704,0.319,0.552,0.519,���k��,4.2,��
2024/05/24,18:00,0.508,0.778,0.489,0.961,0.704,0.320,0.554,0.518,���k��,7.1,��
2024/05/24,18:10,0.510,0.776,0.489,0.960,0.704,0.319,0.552,0.518,��,8.1,��
2024/05/24,18:20,0.510,0.778,0.491,0.961,0.702,0.319,0.552,0.517,��,8.1,��
2024/05/24,18:30,0.510,0.776,0.490,0.963,0.705,0.319,0.553,0.518,��,7.8,��
2024/05/24,18:40,0.509,0.778,0.489,0.959,0.705,0.319,0.554,0.517,��,8.4,��
2024/05/24,18:50,0.508,0.780,0.491,0.962,0.704,0.319,0.553,0.520,��,7.7,��
2024/05/24,19:00,0.507,0.778,0.491,0.960,0.706,0.319,0.553,0.520,���k��,6.6,��
2024/05/24,19:10,0.509,0.780,0.493,0.961,0.706,0.318,0.554,0.519,���k��,7.4,��
2024/05/24,19:20,0.508,0.779,0.491,0.962,0.705,0.319,0.554,0.520,���k��,7.1,��
2024/05/24,19:30,0.507,0.781,0.490,0.965,0.705,0.317,0.555,0.521,��,6.5,��
2024/05/24,19:40,0.510,0.781,0.491,0.965,0.704,0.318,0.555,0.519,��,6.2,��
2024/05/24,19:50,0.509,0.782,0.489,0.961,0.704,0.318,0.554,0.520,��,5.9,��
2024/05/24,20:00,0.510,0.781,0.490,0.960,0.704,0.318,0.553,0.520,���k��,4.7,��
2024/05/24,20:10,0.509,0.781,0.490,0.962,0.707,0.318,0.554,0.520,�k��,5.2,��
2024/05/24,20:20,0.508,0.779,0.492,0.963,0.704,0.318,0.554,0.519,�k��,5.0,��
2024/05/24,20:30,0.508,0.780,0.491,0.961,0.704,0.317,0.555,0.520,�k��,4.6,��
2024/05/24,20:40,0.509,0.781,0.491,0.962,0.706,0.318,0.553,0.520,�k��,3.5,��
2024/05/24,20:50,0.508,0.780,0.491,0.962,0.704,0.318,0.553,0.518,���k��,3.5,��
2024/05/24,21:00,0.510,0.780,0.492,0.964,0.704,0.318,0.553,0.519,�k��,3.9,��
2024/05/24,21:10,0.509,0.780,0.492,0.962,0.704,0.317,0.553,0.519,�k��,6.0,��
2024/05/24,21:20,0.509,0.780,0.491,0.963,0.704,0.318,0.553,0.520,�k��,7.9,��
2024/05/24,21:30,0.509,0.781,0.490,0.962,0.705,0.318,0.553,0.517,�k��,6.8,��
2024/05/24,21:40,0.508,0.783,0.491,0.961,0.705,0.317,0.553,0.520,�k��,5.3,��
2024/05/24,21:50,0.508,0.777,0.491,0.962,0.707,0.317,0.552,0.517,�k��,2.9,��
2024/05/24,22:00,0.507,0.778,0.490,0.965,0.704,0.317,0.554,0.518,�k��,6.6,��
2024/05/24,22:10,0.509,0.778,0.489,0.963,0.704,0.317,0.552,0.518,�k��,9.2,��
2024/05/24,22:20,0.510,0.780,0.491,0.961,0.703,0.316,0.553,0.517,�k��,10.5,��
2024/05/24,22:30,0.508,0.778,0.490,0.963,0.703,0.318,0.552,0.519,�k��,9.7,��
2024/05/24,22:40,0.511,0.781,0.490,0.965,0.704,0.315,0.550,0.518,�k��,11.8,��
2024/05/24,22:50,0.510,0.781,0.490,0.964,0.702,0.317,0.551,0.518,�k��,10.5,��
2024/05/24,23:00,0.509,0.780,0.488,0.962,0.703,0.317,0.551,0.518,�k��,11.4,��
2024/05/24,23:10,0.509,0.780,0.490,0.964,0.703,0.317,0.550,0.517,�k��,10.7,��
2024/05/24,23:20,0.508,0.781,0.489,0.963,0.705,0.316,0.549,0.518,�k��,12.4,��
2024/05/24,23:30,0.508,0.781,0.488,0.962,0.702,0.315,0.550,0.518,�k��,12.0,��
2024/05/24,23:40,0.509,0.782,0.488,0.963,0.703,0.316,0.551,0.517,�k��,12.4,��
2024/05/24,23:50,0.506,0.780,0.488,0.964,0.704,0.316,0.550,0.519,�k��,9.6,��
